Location: Vinland
(47.7731°N, 122.6974°W)
Time: 19:25:47
(UTC+00:00)

Vanguard 1 Rocket - Pass Details

Date: 22 March 2023
Orbit: 655 x 4220 km, 34.3° (Epoch: 05 June)

Event Time Altitude Azimuth Distance (km) Brightness Sun altitude
Exits shadow 12:26:21 22° 229° (SW) 2,764 9.3 -17.8°
Maximum altitude 12:28:19 24° 210° (SSW) 2,448 9.1 -17.5°
Drops below altitude 10° 12:33:28 10° 158° (SSE) 2,734 9.9 -16.7°
Sets 12:36:02 0° 143° (SE) 3,408 10.6 -16.3°
